Content
SEND FEEDBACK

Daily
Averages
Monthly
Summary
United States of America

LAKE BRONSON, MINNESOTA


Home > North America > United States > Minnesota
Elevation: 1020 feet     Latitude: 48 58N     Longitude: 096 26W

WEATHER
 
SELECT A DAY
Number of Records: 457,607;   Date Range: 1/1/95 - 12/17/14
 
SHARE

PRINT THIS DATA

[ ← Previous Day ]
WEATHER ALMANAC - JANUARY 30, 2013
[ Next Day → ]
[ °C ]   °F
Weather ElementAverageHighLow
Temperature2.7 °F6.8 °F (12:28 am)-5.8 °F (10:34 pm)
Dewpoint-1.6 °F3.2 °F (3:54 am)-9.4 °F (9:34 pm)
Humidity82.3 %92 % (2:14 am)78 % (12:54 am)
Barometer29.90 in29.97 in (12:54 am)29.86 in (12:54 pm)
Wind Speed16.6 mph24.2 mph (8:14 pm)
Wind Gust31.1 mph (12:28 am)
Weather ElementAverage
Visibility4.1 mi
Wind DirectionNNW (336.3 °)

Weather ElementTotal
Precipitation---
Heating Degree Days64.5 (Base 65)
Averaged from 68 records on January 30, 2013
WEATHER CONDITIONS BREAKOUT
WIND DIRECTION BREAKOUT
WEATHER BY HOUR - JANUARY 30, 2013
[ °C ]   °F
Local TimeTemperatureDewpointHumidityBarometerVisibilityWind DirectionWind SpeedGust SpeedPrecipitationEventsConditions
12:28 AM6.8 °F1.4 °F79 %29.96 in5.0 miNorth (350°)20.7 mph31.1 mphHaze
12:54 AM5.0 °F-0.4 °F78 %29.97 in10.0 miNorth (350°)17.3 mph25.3 mphOvercast
1:14 AM3.2 °F-0.4 °F85 %29.96 in10.0 miNorth (350°)15.0 mph21.9 mphMostly Cloudy
1:34 AM3.2 °F-2.2 °F78 %29.94 in10.0 miNorth (350°)16.1 mphClear
1:54 AM3.2 °F-0.4 °F85 %29.94 in10.0 miNNW (340°)13.8 mphMostly Cloudy
2:14 AM3.2 °F1.4 °F92 %29.94 in10.0 miNNW (330°)10.4 mphOvercast
2:54 AM6.8 °F1.4 °F79 %29.93 in10.0 miNNW (340°)16.1 mph21.9 mphOvercast
3:14 AM6.8 °F1.4 °F79 %29.92 in10.0 miNNW (340°)16.1 mphOvercast
3:34 AM6.8 °F1.4 °F79 %29.92 in10.0 miNorth (350°)16.1 mphOvercast
3:54 AM6.8 °F3.2 °F85 %29.92 in10.0 miNNW (340°)15.0 mphOvercast
4:14 AM6.8 °F3.2 °F85 %29.91 in10.0 miNorth (350°)13.8 mphOvercast
4:34 AM6.8 °F3.2 °F85 %29.91 in10.0 miNNW (340°)13.8 mphOvercast
4:54 AM6.8 °F3.2 °F85 %29.91 in10.0 miNNW (340°)15.0 mphOvercast
5:14 AM6.8 °F3.2 °F85 %29.92 in10.0 miNNW (340°)12.7 mphOvercast
5:54 AM6.8 °F3.2 °F85 %29.91 in10.0 miNorth (350°)17.3 mphOvercast
6:14 AM6.8 °F3.2 °F85 %29.92 in10.0 miNorth (350°)15.0 mphOvercast
6:34 AM6.8 °F3.2 °F85 %29.92 in10.0 miNorth (350°)12.7 mphOvercast
6:54 AM6.8 °F3.2 °F85 %29.92 in10.0 miNorth (350°)12.7 mphOvercast
7:14 AM6.8 °F3.2 °F85 %29.92 in10.0 miNorth (350°)13.8 mphOvercast
7:34 AM6.8 °F3.2 °F85 %29.92 in10.0 miNorth (350°)15.0 mphOvercast
7:54 AM6.8 °F3.2 °F85 %29.93 in10.0 miNorth (350°)9.2 mphOvercast
8:14 AM6.8 °F3.2 °F85 %29.92 in3.0 miNorth (350°)8.1 mphOvercast
8:34 AM6.8 °F3.2 °F85 %29.92 in1.2 miNNW (340°)11.5 mphSnowLight Snow
8:54 AM6.8 °F1.4 °F79 %29.91 in2.5 miNNW (340°)11.5 mphSnowLight Snow
9:14 AM6.8 °F1.4 °F79 %29.90 in2.5 miNNW (330°)12.7 mphSnowLight Snow
9:34 AM5.0 °F1.4 °F85 %29.90 in2.0 miNNW (330°)12.7 mphSnowLight Snow
9:54 AM5.0 °F1.4 °F85 %29.90 in2.5 miNNW (330°)13.8 mphOvercast
10:14 AM5.0 °F1.4 °F85 %29.89 in2.5 miNNW (330°)13.8 mphOvercast
10:34 AM5.0 °F1.4 °F85 %29.89 in1.5 miNNW (330°)15.0 mphSnowLight Snow
10:54 AM5.0 °F1.4 °F85 %29.88 in1.5 miNW (320°)18.4 mphOvercast
11:14 AM6.8 °F1.4 °F79 %29.88 in1.8 miNNW (330°)16.1 mphHaze
11:34 AM6.8 °F1.4 °F79 %29.88 in1.2 miNW (320°)17.3 mph23.0 mphHaze
11:54 AM5.0 °F-0.4 °F78 %29.87 in1.5 miNNW (330°)18.4 mph23.0 mphHaze
12:13 PM5.0 °F-0.4 °F78 %29.87 in1.8 miNNW (330°)16.1 mphHaze
12:34 PM5.0 °F-0.4 °F78 %29.87 in2.0 miNNW (330°)16.1 mphHaze
12:54 PM5.0 °F-0.4 °F78 %29.86 in1.2 miNNW (330°)19.6 mphHaze
1:14 PM5.0 °F-0.4 °F78 %29.86 in1.5 miNNW (330°)17.3 mphHaze
1:34 PM3.2 °F-0.4 °F85 %29.86 in1.2 miNW (320°)16.1 mph20.7 mphOvercast
2:14 PM3.2 °F-0.4 °F85 %29.86 in1.2 miNNW (330°)17.3 mphHaze
2:34 PM3.2 °F-2.2 °F78 %29.86 in1.5 miNNW (330°)17.3 mphHaze
2:53 PM3.2 °F-0.4 °F85 %29.86 in1.2 miNW (320°)18.4 mph24.2 mphHaze
3:14 PM3.2 °F-0.4 °F85 %29.86 in0.8 miNW (320°)18.4 mph25.3 mphOvercast
3:34 PM3.2 °F-0.4 °F85 %29.86 in0.8 miNW (320°)18.4 mphOvercast
3:53 PM3.2 °F-0.4 °F85 %29.86 in0.5 miNW (320°)16.1 mphSnowLight Snow
4:14 PM1.4 °F-2.2 °F85 %29.86 in0.5 miNNW (330°)17.3 mphFogLight Freezing Fog
4:34 PM1.4 °F-2.2 °F85 %29.86 in1.0 miNNW (330°)13.8 mphOvercast
4:54 PM1.4 °F-4.0 °F78 %29.86 in1.2 miNNW (340°)21.9 mphHaze
5:14 PM1.4 °F-2.2 °F85 %29.87 in1.5 miNNW (340°)17.3 mph20.7 mphOvercast
5:34 PM-0.4 °F-4.0 °F85 %29.87 in1.8 miNNW (330°)18.4 mphOvercast
5:54 PM-0.4 °F-4.0 °F85 %29.88 in2.5 miNNW (330°)16.1 mph20.7 mphOvercast
6:14 PM-0.4 °F-5.8 °F78 %29.88 in2.0 miNNW (340°)18.4 mph24.2 mphHaze
6:34 PM-0.4 °F-5.8 °F78 %29.88 in2.0 miNNW (340°)21.9 mphOvercast
6:54 PM-0.4 °F-5.8 °F78 %29.88 in2.0 miNNW (330°)16.1 mphHaze
7:14 PM-2.2 °F-5.8 °F85 %29.88 in2.0 miNNW (340°)20.7 mphOvercast
7:34 PM-2.2 °F-7.6 °F78 %29.89 in1.2 miNNW (340°)18.4 mph26.5 mphSnowLight Snow
7:54 PM-2.2 °F-7.6 °F78 %29.89 in1.2 miNNW (340°)20.7 mph27.6 mphSnowLight Snow
8:14 PM-2.2 °F-7.6 °F78 %29.89 in1.5 miNNW (340°)24.2 mph27.6 mphSnowLight Snow
8:34 PM-2.2 °F-7.6 °F78 %29.89 in1.5 miNNW (330°)17.3 mph27.6 mphHaze
8:54 PM-2.2 °F-7.6 °F78 %29.89 in1.5 miNNW (340°)20.7 mph26.5 mphHaze
9:14 PM-4.0 °F-7.6 °F85 %29.90 in2.0 miNNW (340°)19.6 mph25.3 mphOvercast
9:34 PM-4.0 °F-9.4 °F78 %29.90 in1.8 miNNW (330°)18.4 mphHaze
9:54 PM-4.0 °F-9.4 °F78 %29.91 in1.2 miNNW (330°)20.7 mph25.3 mphSnowLight Snow
10:14 PM-4.0 °F-9.4 °F78 %29.91 in1.5 miNNW (330°)17.3 mph25.3 mphSnowLight Snow
10:34 PM-5.8 °F-9.4 °F84 %29.91 in1.8 miNNW (340°)17.3 mph24.2 mphOvercast
10:54 PM-5.8 °F-9.4 °F84 %29.92 in1.0 miNNW (340°)21.9 mph27.6 mphSnowLight Snow
11:14 PM-5.8 °F-9.4 °F84 %29.92 in1.0 miNNW (330°)18.4 mph25.3 mphSnowLight Snow
11:34 PM-5.8 °F-9.4 °F84 %29.92 in0.8 miNNW (340°)20.7 mph27.6 mphSnowLight Snow
11:54 PM-5.8 °F-9.4 °F84 %29.93 in1.0 miNNW (330°)21.9 mph25.3 mphSnowLight Snow
Hourly data recorded from KHCO, located miles away from Lake Bronson, Minnesota







STORIES FROM OUR PARTNERS